Regional Weather Roundup
Issued by NWS

Home | Current Version | Previous Version | Text Only | Print | Product List | Glossary On
Versions: 1 2 3 4 5 6 7 8 9 10 11 12 13 14 15 16 17 18 19 20 21 22 23 24 25 26 27 28 29 30 31 32 33 34 35 36 37 38 39 40 41 42 43 44 45 46 47 48 49 50
000
ASUS42 KFFC 271510
RWRGA
WEATHER ROUNDUP FOR GEORGIA
NATIONAL WEATHER SERVICE PEACHTREE CITY GA
1100 AM EDT SUN MAY 27 2018

NOTE: "FAIR" INDICATES FEW OR NO CLOUDS BELOW 12,000 FEET WITH NO
SIGNIFICANT WEATHER AND/OR OBSTRUCTIONS TO VISIBILITY.

* = USE WITH CAUTION. THE STATIONS MARKED WITH AN ASTERISK MAY NOT
REPORT WEATHER SUCH AS PRECIPITATION, FOG, OR THUNDER AND ARE NOT
QUALITY CONTROLLED BY NWS.

THE REMARK "TC" DENOTES TEMPERATURE READING IN DEGREES CELSIUS.

GAZ001>058-271600-
NORTH GEORGIA

CITY           SKY/WX    TMP DP  RH WIND       PRES   REMARKS
ATLANTA        PTSUNNY   79  68  69 SE8       29.99R
ATHENS         PTSUNNY   79  70  74 CALM      30.00S
CHAMBLEE       PTSUNNY   79  68  69 VRB5      29.99R
PEACHTREE CITY PTSUNNY   78  70  76 E8        29.98S
ROME           FAIR      78  72  81 CALM      29.97S
WEST ATLANTA   PTSUNNY   79  68  69 E6        29.98R
GAINESVILLE    CLOUDY    74  70  87 E6        30.03S
CARTERSVILLE   FAIR      80  70  71 VRB5      29.98S


CITY           SKY/WX    TMP DP  RH WIND       PRES   REMARKS
DALTON*        FAIR      79  70  73 CALM      29.99F
LAWRENCEVILLE* CLOUDY    77  70  79 E8        30.01R
MARIETTA       PTSUNNY   78  68  70 E7        29.99R
KENNESAW*      FAIR      79  68  69 CALM      29.99S
CANTON*        PTSUNNY   79  66  65 E7        30.02S
BLAIRSVILLE*   FAIR      75  67  75 NE5       30.04S
$$

GAZ059>098-102>109-271600-
CENTRAL GEORGIA

CITY           SKY/WX    TMP DP  RH WIND       PRES   REMARKS
AUGUSTA-BUSH   PTSUNNY   78  72  81 E6        29.99F
AUGUSTA-DANIEL FAIR      79  70  74 E5        30.01S
COLUMBUS       FAIR      77  69  76 E9        29.93F
MACON          FAIR      77  71  82 E6        29.96S
ROBINS AFB     FAIR      78  71  81 E7        29.95F


CITY           SKY/WX    TMP DP  RH WIND       PRES   REMARKS
LAGRANGE*      FAIR      78  72  84 E3        29.97R
SYLVANIA*      FAIR      83  72  69 E7        29.99S
MILLEDGEVILLE* FAIR      79  72  78 CALM      29.98S
$$

GAZ099>101-110>166-271600-
SOUTH GEORGIA

CITY           SKY/WX    TMP DP  RH WIND       PRES   REMARKS
SAVANNAH       PTSUNNY   82  71  69 E17       29.97S
VALDOSTA       LGT RAIN  71  70  96 NE7       29.89F
ALMA           CLOUDY    78  69  73 E10       29.94S
ST SIMONS      LGT RAIN  72  67  84 E13       29.95S
FT STEWART     PTSUNNY   75  72  88 NE6       29.94S
ALBANY         PTSUNNY   82  72  71 E12       29.92F
HUNTER AFB     FAIR      75  69  81 E9        29.94S
MOODY AFB      LGT RAIN  73  71  94 NE7       29.89F
BRUNSWICK      LGT RAIN  72  68  88 E16       29.97R


CITY           SKY/WX    TMP DP  RH WIND       PRES   REMARKS
BAINBRIDGE*    FAIR      82  75  78 E16G22    29.87F
MOULTRIE*      PTSUNNY   77  70  78 E10       29.91S
VIDALIA*       PTSUNNY   81  68  65 E9        29.96F
WAYCROSS*      CLOUDY    74  72  91 E10       29.93F
$$




USA.gov is the U.S. government's official web portal to all federal, state and local government web resources and services.